When you browse on this site, cookies collect data to enhance your experience and personalize the content and advertising you see.
Visit our Privacy Policy to learn more. By continuing to use the site, you agree to this use of cookies and data.
  • In Czech Republic
  • List of Countries
  • For 7 days
  • Water Temperature
  • Weather Map
  • Weather Widgets
  • user-avatar
    Login

    Hourly Weather Joue-les-Tours

    Today, 4 June, Thursday

    Time Temperature Precipitation Wind Pressure Humidity
    00:00 +14°C° 0.3 mm 2 mps 746 mmHg 91%
    01:00 +13°C° 1.2 mm 2 mps 746 mmHg 93%
    02:00 +13°C° 1.2 mm 2 mps 745 mmHg 95%
    03:00 +12°C° 1.2 mm 2 mps 745 mmHg 96%
    04:00 +13°C° 0.7 mm 2 mps 745 mmHg 95%
    05:00 +12°C° 0.7 mm 3 mps 745 mmHg 94%
    06:00 +13°C° 0.7 mm 3 mps 745 mmHg 93%
    07:00 +13°C° 0.1 mm 4 mps 746 mmHg 92%
    08:00 +13°C° 0.1 mm 4 mps 746 mmHg 91%
    09:00 +13°C° 0.1 mm 4 mps 746 mmHg 90%
    10:00 +14°C° 0.1 mm 4 mps 746 mmHg 87%
    11:00 +14°C° 0.1 mm 4 mps 746 mmHg 84%
    12:00 +15°C° 0.1 mm 4 mps 746 mmHg 81%
    13:00 +15°C° 0.2 mm 4 mps 746 mmHg 78%
    14:00 +17°C° 0.2 mm 4 mps 746 mmHg 75%
    15:00 +17°C° 0.2 mm 4 mps 746 mmHg 72%
    16:00 +17°C° 0.2 mm 4 mps 747 mmHg 75%
    17:00 +15°C° 0.2 mm 4 mps 747 mmHg 77%
    18:00 +14°C° 0.2 mm 4 mps 747 mmHg 79%
    19:00 +13°C° 0 mm 4 mps 748 mmHg 81%
    20:00 +12°C° 0 mm 4 mps 748 mmHg 83%
    21:00 +10°C° 0 mm 3 mps 749 mmHg 84%
    22:00 +10°C° 0 mm 3 mps 749 mmHg 86%
    23:00 +9°C° 0 mm 3 mps 749 mmHg 87%

    Tomorrow, 5 June, Friday

    Time Temperature Precipitation Wind Pressure Humidity
    00:00 +9°C° 0 mm 3 mps 750 mmHg 88%
    01:00 +9°C° 0 mm 3 mps 749 mmHg 89%
    02:00 +8°C° 0 mm 3 mps 749 mmHg 90%
    03:00 +7°C° 0 mm 4 mps 749 mmHg 91%
    04:00 +8°C° 0.1 mm 4 mps 749 mmHg 91%
    05:00 +9°C° 0.1 mm 5 mps 749 mmHg 90%
    06:00 +9°C° 0.1 mm 5 mps 748 mmHg 90%
    07:00 +11°C° 0.1 mm 6 mps 748 mmHg 90%
    08:00 +13°C° 0.1 mm 6 mps 748 mmHg 89%
    09:00 +14°C° 0.1 mm 6 mps 748 mmHg 88%
    10:00 +15°C° 0.2 mm 6 mps 748 mmHg 84%
    11:00 +16°C° 0.2 mm 7 mps 748 mmHg 79%
    12:00 +17°C° 0.2 mm 7 mps 748 mmHg 74%
    13:00 +17°C° 0.1 mm 7 mps 748 mmHg 76%
    14:00 +17°C° 0.1 mm 7 mps 748 mmHg 77%
    15:00 +17°C° 0.1 mm 6 mps 747 mmHg 79%
    16:00 +16°C° 0.1 mm 6 mps 747 mmHg 79%
    17:00 +16°C° 0.1 mm 7 mps 747 mmHg 80%
    18:00 +15°C° 0.1 mm 7 mps 747 mmHg 80%
    19:00 +15°C° 0 mm 6 mps 748 mmHg 80%
    20:00 +15°C° 0 mm 6 mps 748 mmHg 80%
    21:00 +15°C° 0 mm 6 mps 749 mmHg 79%
    22:00 +14°C° 0.1 mm 5 mps 749 mmHg 82%
    23:00 +14°C° 0.1 mm 5 mps 749 mmHg 85%

    Day after tomorrow, 6 June, Saturday

    Time Temperature Precipitation Wind Pressure Humidity
    00:00 +13°C° 0.1 mm 5 mps 749 mmHg 88%
    01:00 +13°C° 0.1 mm 4 mps 749 mmHg 89%
    02:00 +13°C° 0.1 mm 4 mps 749 mmHg 90%
    03:00 +13°C° 0.1 mm 3 mps 749 mmHg 91%
    04:00 +13°C° 0.1 mm 3 mps 749 mmHg 91%
    05:00 +13°C° 0.1 mm 3 mps 749 mmHg 90%
    06:00 +13°C° 0.1 mm 3 mps 749 mmHg 89%
    07:00 +13°C° 0.1 mm 3 mps 749 mmHg 83%
    08:00 +14°C° 0.1 mm 4 mps 750 mmHg 78%
    09:00 +15°C° 0.1 mm 5 mps 750 mmHg 72%
    10:00 +16°C° 0.1 mm 5 mps 750 mmHg 67%
    11:00 +16°C° 0.1 mm 6 mps 750 mmHg 62%
    12:00 +17°C° 0.1 mm 6 mps 750 mmHg 58%
    13:00 +17°C° 0 mm 6 mps 750 mmHg 57%
    14:00 +17°C° 0 mm 6 mps 750 mmHg 56%
    15:00 +17°C° 0 mm 6 mps 750 mmHg 55%
    16:00 +16°C° 0 mm 5 mps 750 mmHg 59%
    17:00 +15°C° 0 mm 5 mps 750 mmHg 62%
    18:00 +15°C° 0 mm 4 mps 750 mmHg 66%
    19:00 +13°C° 0 mm 3 mps 751 mmHg 71%
    20:00 +11°C° 0 mm 3 mps 751 mmHg 75%
    21:00 +9°C° 0 mm 2 mps 752 mmHg 80%
    22:00 +9°C° 0 mm 2 mps 752 mmHg 80%
    23:00 +8°C° 0 mm 2 mps 752 mmHg 81%

    7 June, Sunday

    Time Temperature Precipitation Wind Pressure Humidity
    00:00 +9°C° 0 mm 1 mps 752 mmHg 81%
    01:00 +8°C° 0 mm 2 mps 752 mmHg 79%
    02:00 +8°C° 0 mm 2 mps 753 mmHg 76%
    03:00 +8°C° 0 mm 2 mps 753 mmHg 74%
    04:00 +9°C° 0 mm 2 mps 753 mmHg 75%
    05:00 +9°C° 0 mm 2 mps 753 mmHg 75%
    06:00 +9°C° 0 mm 3 mps 753 mmHg 76%
    07:00 +11°C° 0 mm 3 mps 754 mmHg 71%
    08:00 +12°C° 0 mm 4 mps 754 mmHg 66%
    09:00 +14°C° 0 mm 4 mps 754 mmHg 61%
    10:00 +15°C° 0 mm 4 mps 754 mmHg 58%
    11:00 +17°C° 0 mm 4 mps 754 mmHg 56%
    12:00 +18°C° 0 mm 4 mps 754 mmHg 54%
    13:00 +18°C° 0.1 mm 4 mps 754 mmHg 55%
    14:00 +17°C° 0.1 mm 5 mps 754 mmHg 56%
    15:00 +19°C° 0.1 mm 5 mps 754 mmHg 57%
    16:00 +18°C° 0.5 mm 4 mps 754 mmHg 64%
    17:00 +17°C° 0.5 mm 4 mps 754 mmHg 71%
    18:00 +15°C° 0.5 mm 4 mps 754 mmHg 78%
    19:00 +14°C° 0.1 mm 3 mps 755 mmHg 82%
    20:00 +12°C° 0.1 mm 3 mps 755 mmHg 86%
    21:00 +12°C° 0.1 mm 2 mps 756 mmHg 91%
    22:00 +10°C° 0 mm 2 mps 756 mmHg 92%
    23:00 +10°C° 0 mm 2 mps 756 mmHg 93%

    8 June, Monday

    Time Temperature Precipitation Wind Pressure Humidity
    00:00 +9°C° 0 mm 2 mps 756 mmHg 94%
    01:00 +9°C° 0 mm 2 mps 756 mmHg 94%
    02:00 +9°C° 0 mm 2 mps 756 mmHg 95%
    03:00 +8°C° 0 mm 2 mps 756 mmHg 95%
    04:00 +9°C° 0 mm 2 mps 756 mmHg 95%
    05:00 +10°C° 0 mm 2 mps 757 mmHg 94%
    06:00 +10°C° 0 mm 2 mps 757 mmHg 94%
    07:00 +12°C° 0 mm 3 mps 757 mmHg 87%
    08:00 +14°C° 0 mm 3 mps 757 mmHg 81%
    09:00 +17°C° 0 mm 3 mps 757 mmHg 74%
    10:00 +18°C° 0.1 mm 4 mps 757 mmHg 69%
    11:00 +19°C° 0.1 mm 4 mps 757 mmHg 65%
    12:00 +20°C° 0.1 mm 4 mps 757 mmHg 60%
    13:00 +20°C° 0.4 mm 4 mps 757 mmHg 62%
    14:00 +19°C° 0.4 mm 4 mps 757 mmHg 65%
    15:00 +19°C° 0.4 mm 3 mps 757 mmHg 68%
    16:00 +19°C° 0.4 mm 3 mps 757 mmHg 72%
    17:00 +18°C° 0.4 mm 3 mps 757 mmHg 76%
    18:00 +17°C° 0.4 mm 3 mps 757 mmHg 80%
    19:00 +16°C° 0 mm 3 mps 758 mmHg 84%
    20:00 +14°C° 0 mm 3 mps 758 mmHg 88%
    21:00 +13°C° 0 mm 2 mps 759 mmHg 92%
    22:00 +13°C° 0 mm 2 mps 759 mmHg 93%
    23:00 +12°C° 0 mm 2 mps 759 mmHg 93%

    9 June, Tuesday

    Time Temperature Precipitation Wind Pressure Humidity
    00:00 +12°C° 0 mm 2 mps 759 mmHg 94%
    01:00 +10°C° 0 mm 2 mps 759 mmHg 93%
    02:00 +10°C° 0 mm 2 mps 759 mmHg 93%
    03:00 +9°C° 0 mm 2 mps 759 mmHg 93%
    04:00 +10°C° 0 mm 2 mps 759 mmHg 91%
    05:00 +12°C° 0 mm 2 mps 760 mmHg 90%
    06:00 +12°C° 0 mm 2 mps 760 mmHg 88%
    07:00 +14°C° 0 mm 2 mps 760 mmHg 80%
    08:00 +15°C° 0 mm 2 mps 760 mmHg 72%
    09:00 +17°C° 0 mm 2 mps 760 mmHg 63%
    10:00 +18°C° 0 mm 2 mps 760 mmHg 62%
    11:00 +18°C° 0 mm 2 mps 760 mmHg 60%
    12:00 +19°C° 0 mm 2 mps 760 mmHg 59%
    13:00 +19°C° 0.1 mm 2 mps 760 mmHg 59%
    14:00 +20°C° 0.1 mm 2 mps 760 mmHg 59%
    15:00 +20°C° 0.1 mm 2 mps 760 mmHg 59%
    16:00 +19°C° 0.1 mm 2 mps 760 mmHg 63%
    17:00 +20°C° 0.1 mm 1 mps 760 mmHg 67%
    18:00 +20°C° 0.1 mm 1 mps 760 mmHg 71%
    19:00 +18°C° 0 mm 1 mps 760 mmHg 76%
    20:00 +16°C° 0 mm 1 mps 760 mmHg 80%
    21:00 +14°C° 0 mm 1 mps 760 mmHg 84%
    22:00 +14°C° 0 mm 1 mps 760 mmHg 84%
    23:00 +14°C° 0 mm 1 mps 760 mmHg 85%
    Show more